Gastonia, NC

2:44 PM EDT on March 27, 2017 (GMT -0400)
Gastonia Municipal

Weather History for KAKH - July, 2013

Change the Weather History Date:

Friday, July 5, 2013

  Actual Average (KCLT) Record (KCLT)
Temperature  
Mean Temperature 78 °F -  
Max Temperature 84 °F 87 °F 100 °F (1954)
Min Temperature 73 °F 68 °F 57 °F (1967)
Cooling Degree Days 12    
Growing Degree Days 28 (Base 50)    
Moisture  
Dew Point 73 °F    
Average Humidity 90    
Maximum Humidity 100    
Minimum Humidity 74    
Precipitation  
Precipitation 0.06 in - - ()
Sea Level Pressure  
Sea Level Pressure 30.23 in    
Wind  
Wind Speed 4 mph (SSE)    
Max Wind Speed 12 mph    
Max Gust Speed -    
Visibility 9 miles    
Events Rain , Thunderstorm    
Averages and records for this station are not official NWS values.
T = Trace of Precipitation, MM = Missing Value Source: NWS Daily Summary

Daily Weather History Graph

Daily Weather History Graph

Search for Another Location

Airport or City:

Trip Planner

Search our weather history database for the weather conditions in past years. The results will help you decide how hot, cold, wet, or windy it might be!

Date:

Astronomy

Jul. 05, 2013 Rise Set
Actual Time 6:15 AM EDT 8:42 PM EDT
Civil Twilight 5:46 AM EDT 9:12 PM EDT
Nautical Twilight 5:09 AM EDT 9:48 PM EDT
Astronomical Twilight 4:29 AM EDT 10:28 PM EDT
Moon 4:11 AM EDT (7/5) 6:38 PM EDT (7/5)
Length of Visible Light 15h 25m
Length of Day
14h 26m
Waning Crescent, 6% of the Moon is Illuminated
Jul 5
Waning Crescent
Jul 8
New
Jul 15
First Quarter
Jul 22
Full
Jul 29
Last Quarter

Hourly Weather History & Observations

Time (EDT) Temp. Heat Index Dew Point Humidity Pressure Visibility Wind Dir Wind Speed Gust Speed Precip Events Conditions
12:20 AM 73.4 °F - 71.6 °F 94% 30.24 in 6.0 mi Calm Calm - N/A   Overcast
12:54 AM 73.0 °F - 72.0 °F 96% 30.21 in 7.0 mi Variable 4.6 mph - N/A   Overcast
1:54 AM 73.0 °F - 72.0 °F 96% 30.21 in 9.0 mi South 6.9 mph - N/A   Overcast
2:06 AM 73.4 °F - 71.6 °F 94% 30.23 in 9.0 mi South 5.8 mph - N/A   Overcast
2:54 AM 73.0 °F - 72.0 °F 96% 30.19 in 9.0 mi South 3.5 mph - N/A   Overcast
3:33 AM 73.4 °F - 71.6 °F 94% 30.22 in 8.0 mi South 4.6 mph - N/A   Overcast
3:41 AM 73.4 °F - 71.6 °F 94% 30.22 in 8.0 mi South 4.6 mph - N/A   Overcast
3:54 AM 73.0 °F - 72.0 °F 96% 30.19 in 8.0 mi South 5.8 mph - N/A   Overcast
4:01 AM 73.4 °F - 71.6 °F 94% 30.22 in 8.0 mi South 4.6 mph - 0.01 in Rain Light Rain
4:19 AM 73.4 °F - 71.6 °F 94% 30.21 in 8.0 mi South 3.5 mph - 0.01 in   Overcast
4:31 AM 73.4 °F - 71.6 °F 94% 30.22 in 8.0 mi South 3.5 mph - 0.01 in   Overcast
4:38 AM 73.4 °F - 71.6 °F 94% 30.22 in 7.0 mi South 3.5 mph - 0.01 in   Overcast
4:54 AM 73.0 °F - 72.0 °F 96% 30.19 in 7.0 mi Variable 3.5 mph - 0.01 in   Mostly Cloudy
5:04 AM 73.4 °F - 71.6 °F 94% 30.21 in 7.0 mi South 3.5 mph - N/A   Mostly Cloudy
5:13 AM 73.4 °F - 71.6 °F 94% 30.21 in 7.0 mi South 3.5 mph - N/A   Mostly Cloudy
5:54 AM 73.0 °F - 72.0 °F 96% 30.20 in 7.0 mi SSE 4.6 mph - N/A   Overcast
6:12 AM 73.4 °F - 71.6 °F 94% 30.23 in 8.0 mi SSE 4.6 mph - N/A   Overcast
6:30 AM 73.4 °F - 71.6 °F 94% 30.23 in 7.0 mi SSE 4.6 mph - N/A   Overcast
6:37 AM 73.4 °F - 71.6 °F 94% 30.23 in 7.0 mi South 4.6 mph - N/A   Overcast
6:54 AM 73.0 °F - 72.0 °F 96% 30.22 in 7.0 mi Variable 5.8 mph - N/A   Overcast
7:50 AM 75.2 °F - 73.4 °F 94% 30.25 in 7.0 mi Variable 3.5 mph - N/A   Overcast
7:54 AM 75.0 °F - 73.0 °F 94% 30.23 in 7.0 mi Calm Calm - N/A   Overcast
8:11 AM 73.4 °F - 73.4 °F 100% 30.25 in 8.0 mi Calm Calm - N/A   Mostly Cloudy
8:18 AM 73.4 °F - 73.4 °F 100% 30.25 in 6.0 mi South 3.5 mph - 0.00 in Rain Light Rain
8:44 AM 73.4 °F - 73.4 °F 100% 30.26 in 8.0 mi SSE 3.5 mph - 0.00 in   Overcast
8:54 AM 75.0 °F - 73.0 °F 94% 30.24 in 8.0 mi Calm Calm - 0.00 in   Overcast
9:34 AM 77.0 °F - 73.4 °F 89% 30.26 in 10.0 mi South 4.6 mph - N/A   Overcast
9:52 AM 78.8 °F - 73.4 °F 83% 30.26 in 10.0 mi Variable 5.8 mph - N/A   Overcast
9:54 AM 78.1 °F - 73.0 °F 84% 30.24 in 10.0 mi South 9.2 mph - N/A   Overcast
10:10 AM 78.8 °F - 73.4 °F 83% 30.25 in 10.0 mi Variable 4.6 mph - N/A   Overcast
10:45 AM 80.6 °F 85.4 °F 73.4 °F 79% 30.26 in 10.0 mi Variable 6.9 mph - N/A   Scattered Clouds
10:54 AM 81.0 °F 85.8 °F 73.0 °F 77% 30.24 in 10.0 mi South 11.5 mph - N/A   Mostly Cloudy
11:34 AM 78.8 °F - 73.4 °F 83% 30.26 in 1.8 mi South 3.5 mph - 0.04 in Rain Rain
11:40 AM 80.6 °F 86.2 °F 75.2 °F 84% 30.26 in 2.0 mi Variable 4.6 mph - 0.04 in Rain Light Rain
11:47 AM 82.4 °F 89.5 °F 75.2 °F 79% 30.26 in 10.0 mi Variable 6.9 mph - 0.04 in   Mostly Cloudy
11:54 AM 82.0 °F 88.6 °F 75.0 °F 79% 30.23 in 10.0 mi Variable 5.8 mph - 0.04 in   Mostly Cloudy
12:27 PM 78.8 °F - 73.4 °F 83% 30.26 in 10.0 mi Calm Calm - N/A   Mostly Cloudy
12:54 PM 81.0 °F 86.2 °F 73.9 °F 79% 30.23 in 10.0 mi Variable 4.6 mph - N/A   Overcast
1:22 PM 82.4 °F 88.2 °F 73.4 °F 74% 30.24 in 10.0 mi SSE 4.6 mph - N/A   Mostly Cloudy
1:54 PM 82.0 °F 87.4 °F 73.0 °F 74% 30.21 in 10.0 mi SE 5.8 mph - N/A   Mostly Cloudy
2:21 PM 82.4 °F 88.2 °F 73.4 °F 74% 30.22 in 10.0 mi SSE 9.2 mph - N/A Thunderstorm Mostly Cloudy
2:54 PM 80.1 °F 83.8 °F 72.0 °F 76% 30.21 in 10.0 mi South 5.8 mph - N/A Thunderstorm Scattered Clouds
3:21 PM 75.2 °F - 73.4 °F 94% 30.23 in 9.0 mi Variable 3.5 mph - 0.01 in Rain , Thunderstorm Light Thunderstorms and Rain
3:30 PM 75.2 °F - 73.4 °F 94% 30.23 in 10.0 mi Calm Calm - 0.01 in Rain , Thunderstorm Light Thunderstorms and Rain
3:38 PM 75.2 °F - 73.4 °F 94% 30.24 in 10.0 mi Calm Calm - 0.01 in Rain Light Rain
3:54 PM 75.0 °F - 71.1 °F 87% 30.22 in 10.0 mi Calm Calm - 0.01 in   Partly Cloudy
4:54 PM 75.9 °F - 73.0 °F 91% 30.19 in 10.0 mi NNE 3.5 mph - N/A   Clear
5:54 PM 77.0 °F - 73.9 °F 90% 30.19 in 10.0 mi Variable 3.5 mph - 0.00 in   Clear
6:30 PM 77.0 °F - 73.4 °F 89% 30.21 in 10.0 mi Calm Calm - N/A   Partly Cloudy
6:54 PM 77.0 °F - 73.0 °F 88% 30.20 in 10.0 mi Calm Calm - N/A   Clear
7:54 PM 77.0 °F - 72.0 °F 84% 30.20 in 10.0 mi Calm Calm - N/A   Scattered Clouds
8:54 PM 73.9 °F - 73.0 °F 97% 30.21 in 10.0 mi Calm Calm - N/A   Clear
9:54 PM 73.9 °F - 73.0 °F 97% 30.23 in 10.0 mi Calm Calm - N/A   Mostly Cloudy
10:54 PM 73.9 °F - 72.0 °F 93% 30.23 in 9.0 mi Calm Calm - N/A   Scattered Clouds
11:18 PM 73.4 °F - 71.6 °F 94% 30.26 in 10.0 mi Calm Calm - 0.00 in Rain Light Rain
11:32 PM 73.4 °F - 71.6 °F 94% 30.24 in 10.0 mi Variable 3.5 mph - 0.00 in   Scattered Clouds
11:48 PM 73.4 °F - 71.6 °F 94% 30.25 in 10.0 mi South 3.5 mph - 0.00 in   Mostly Cloudy
11:54 PM 73.0 °F - 72.0 °F 96% 30.23 in 10.0 mi Variable 3.5 mph - 0.00 in   Mostly Cloudy